Tracking 22994 objects as of 8-May-2021
HD Live streaming from Space Station
objects crossing your sky now

SL-8 R/B

Track SL-8 R/B now!
10-day predictions


NORAD ID: 11321
Int'l Code: 1979-028B
Perigee: 970.1 km
Apogee: 996.7 km
Inclination: 82.9 °
Period: 104.6 minutes
Semi major axis: 7354 km
RCS: 4.5437 m2 (large)
Launch date: April 7, 1979
Source: Commonwealth of Independent States (former USSR) (CIS)
Launch site: PLESETSK MISSILE AND SPACE COMPLEX (PKMTR)

Note: This is a ROCKET BODY
aabbcc
Your satellite tracking list
Your tracking list is empty




NASA's NSSDC Master Catalog

Two Line Element Set (TLE):
1 11321U 79028B   21127.89334338  .00000024  00000-0  91444-5 0  9991
2 11321  82.9261  44.5038 0018069 212.7999 214.2080 13.76523475113482
Source of the keplerian elements: AFSPC